FENGYUN 1C DEB, 30181

Orbit data source: Space-Track

FENGYUN 1C DEB, 30181 is space debris in SSO originally from a launch on Mon, 10 May 1999 UTC launched from the Taiyaun Space Center, China (TSC). Fengyun 1C debris stems from the Chinese weather satellite Fengyun-1C, which was intentionally destroyed by a Chinese anti-satellite missile in 2007. This event dramatically increased the amount of space debris, with thousands of trackable fragments posing hazards to satellites and human spaceflight. The Fengyun 1C debris cloud has become a focal point in discussions about space sustainability and the need for international regulations to prevent the creation of new debris.

Loading next visibility...
Identifier
30181, 1999-025UN
Orbit
SSO
Country
Flag of CNCN / PRC
Related business
Manufacturer
Unknown
Mission
Spacecraft
Bus & Motor
Unknown
Mass
Unknown
Launch date (UTC)
1999-05-10 (27 years ago)
Launch vehicle
Unknown
Launch site
Taiyaun Space Center, China (TSC)
Object type
Payload
Rocket body
Debris
Shape & HBR
Unknown shape, 0.1 m
Radar Cross Section
Medium (>0.1 m² and <1 m²)

Expand to show TLE details & history
Last TLE update: 18 hours ago

TLE from 18 hours ago
0 FENGYUN 1C DEB
1 30181U 99025UN  26236.73570714  .00002154  00000-0  82977-3 0  9999
2 30181  98.8364 328.8901 0038167 334.5397 177.7000 14.30975502 11384
Epoch: 2026-08-24T17:39Z
TLE epoch observation values (Epoch: 2026-08-24T17:39:25.096Z)
Latitude
27.42647°
Longitude
-84.37488°
Altitude
819.169 km
Speed
7.432 km/s
True Right ascension
10h 13m 58s
True Declination
27° 17' 14"
Sunlit
Object was in daylight at epoch
Visualization orbit readout
Latitude
Unknown
Longitude
Unknown
Altitude
Unknown
Speed
Unknown
Apparent Right ascension
Unknown
Apparent Declination
Unknown
Sunlit
N/A
Visualization observer readout
Local Sidereal Time
02:30:37
Azimuth
Unknown
Elevation
Unknown
Doppler factor
Unknown
Orbital elements
Apogee altitude
812.964 km
Perigee altitude
758.28 km
Semi-major axis
7,163.759 km
Eccentricity
0.00382
Inclination
98.8364°
RAAN
328.8901°
Arg. of periapsis
334.5397°
True anomaly
177.71747°
Mean anomaly
177.7°
Eccentric anomaly
177.70874°
Mean motion
3.57958 °/min
Orbital period
100.57 mins
BSTAR
0.00082977
Loading maneuver chart data...
Computing Atmospheric mass density...

Documentation

Showing up to 5 results
|